Terminal Aerodrome Forecast
Issued by NWS

Home | Current Version | Previous Version | Text Only | Print | Product List | Glossary Off
Versions: 1 2 3 4 5 6 7 8 9 10 11 12 13 14 15 16 17 18 19 20 21 22 23 24 25 26 27 28 29 30 31 32

000
FTUS43 KLOT 291358 AAA
TAFDPA
TAF AMD
KDPA 291358Z 2914/3012 34012KT P6SM BKN010 BKN080
     FM291500 30011G16KT P6SM FEW015 BKN200
     FM291700 29013G20KT P6SM FEW250
     FM300100 26007KT P6SM SKC=

USA.gov is the U.S. government's official web portal to all federal, state and local government web resources and services.